TimeAEST,TemperatureF,Dew PointF,Humidity,Sea Level PressureIn,VisibilityMPH,Wind Direction,Wind SpeedMPH,Gust SpeedMPH,PrecipitationIn,Events,Conditions,WindDirDegrees,DateUTC
12:00 AM,50,41,63,30.23,14,WSW,15.0,,,,Partly Cloudy,250,2013-06-19 14:00:00
12:00 AM,50.0,41.0,71,30.21,6.2,WSW,15.0,-,N/A,,Scattered Clouds,250,2013-06-19 14:00:00
12:30 AM,48.2,41.0,76,30.21,6.2,West,11.5,-,N/A,,Scattered Clouds,270,2013-06-19 14:30:00
1:00 AM,50,42,65,30.24,,West,16.1,,,,,260,2013-06-19 15:00:00
1:00 AM,50.0,41.0,71,30.21,6.2,West,16.1,-,N/A,,Mostly Cloudy,260,2013-06-19 15:00:00
1:30 AM,50.0,42.8,76,30.21,6.2,West,16.1,-,N/A,,Mostly Cloudy,260,2013-06-19 15:30:00
2:00 AM,50.0,42.8,76,30.21,6.2,West,13.8,-,N/A,,Mostly Cloudy,260,2013-06-19 16:00:00
2:30 AM,48.2,41.0,76,30.21,6.2,West,10.4,-,N/A,,Scattered Clouds,280,2013-06-19 16:30:00
3:00 AM,48,41,68,30.22,16,West,11.5,,,,Mostly Cloudy,260,2013-06-19 17:00:00
3:00 AM,48.2,41.0,76,30.21,6.2,West,11.5,-,N/A,,Mostly Cloudy,260,2013-06-19 17:00:00
3:30 AM,48.2,41.0,76,30.21,6.2,West,12.7,-,N/A,,Mostly Cloudy,260,2013-06-19 17:30:00
4:00 AM,48,41,69,30.22,,West,11.5,,,,,270,2013-06-19 18:00:00
4:00 AM,48.2,41.0,76,30.21,6.2,West,11.5,-,N/A,,Scattered Clouds,270,2013-06-19 18:00:00
4:30 AM,48.2,41.0,76,30.21,6.2,West,11.5,-,N/A,,Partly Cloudy,270,2013-06-19 18:30:00
5:00 AM,48.2,42.8,82,30.21,6.2,WSW,15.0,-,N/A,,Scattered Clouds,240,2013-06-19 19:00:00
5:30 AM,51.8,44.6,76,30.21,6.2,WSW,12.7,-,N/A,,Mostly Cloudy,240,2013-06-19 19:30:00
6:00 AM,51,43,66,30.23,9,WSW,11.5,,,,Mostly Cloudy,240,2013-06-19 20:00:00
6:00 AM,50.0,42.8,76,30.21,6.2,WSW,11.5,-,N/A,,Mostly Cloudy,240,2013-06-19 20:00:00
6:30 AM,50.0,42.8,76,30.21,6.2,WSW,13.8,-,N/A,,Mostly Cloudy,250,2013-06-19 20:30:00
7:00 AM,51,42,63,30.25,,West,12.7,,,,,260,2013-06-19 21:00:00
7:00 AM,51.8,42.8,71,30.24,6.2,West,12.7,-,N/A,,Scattered Clouds,260,2013-06-19 21:00:00
7:30 AM,50.0,41.0,71,30.24,6.2,West,12.7,-,N/A,,Mostly Cloudy,280,2013-06-19 21:30:00
8:00 AM,50.0,41.0,71,30.24,6.2,West,15.0,-,N/A,,Mostly Cloudy,260,2013-06-19 22:00:00
8:30 AM,50.0,41.0,71,30.24,6.2,West,13.8,-,N/A,,Partly Cloudy,270,2013-06-19 22:30:00
9:00 AM,53,41,54,30.25,16,West,11.5,,,,Partly Cloudy,270,2013-06-19 23:00:00
9:00 AM,53.6,41.0,62,30.24,6.2,West,11.5,-,N/A,,Scattered Clouds,270,2013-06-19 23:00:00
9:30 AM,55.4,42.8,63,30.24,6.2,West,10.4,-,N/A,,Partly Cloudy,270,2013-06-19 23:30:00
10:00 AM,56,42,50,30.25,,West,8.1,,,,,270,2013-06-20 00:00:00
10:00 AM,55.4,42.8,63,30.24,6.2,West,8.1,-,N/A,,Scattered Clouds,270,2013-06-20 00:00:00
10:30 AM,57.2,44.6,63,30.21,6.2,SW,15.0,-,N/A,,Mostly Cloudy,220,2013-06-20 00:30:00
11:00 AM,57.2,44.6,63,30.21,6.2,SSW,20.7,-,N/A,,Mostly Cloudy,210,2013-06-20 01:00:00
11:30 AM,57.2,46.4,67,30.18,6.2,SSW,18.4,-,N/A,,Scattered Clouds,200,2013-06-20 01:30:00
12:00 PM,58,46,55,30.19,19,SSW,19.6,,,,Partly Cloudy,200,2013-06-20 02:00:00
12:00 PM,57.2,46.4,67,30.18,6.2,SSW,19.6,-,N/A,,Mostly Cloudy,200,2013-06-20 02:00:00
12:30 PM,59.0,44.6,59,30.18,6.2,SSW,18.4,-,N/A,,Mostly Cloudy,200,2013-06-20 02:30:00
1:00 PM,58,46,56,30.18,,SSW,19.6,,,,,200,2013-06-20 03:00:00
1:00 PM,59.0,46.4,63,30.15,6.2,SSW,19.6,-,N/A,,Mostly Cloudy,200,2013-06-20 03:00:00
1:30 PM,57.2,46.4,67,30.15,6.2,SSW,19.6,-,N/A,,Mostly Cloudy,210,2013-06-20 03:30:00
2:00 PM,59.0,48.2,67,30.15,6.2,SSW,19.6,-,N/A,,Mostly Cloudy,210,2013-06-20 04:00:00
2:30 PM,59.0,46.4,63,30.15,6.2,SSW,16.1,-,N/A,,Scattered Clouds,200,2013-06-20 04:30:00
3:00 PM,58,46,55,30.16,16,South,18.4,,,,Partly Cloudy,190,2013-06-20 05:00:00
3:00 PM,57.2,46.4,67,30.15,6.2,South,18.4,-,N/A,,Mostly Cloudy,190,2013-06-20 05:00:00
3:30 PM,59.0,46.4,63,30.12,6.2,South,18.4,-,N/A,,Mostly Cloudy,190,2013-06-20 05:30:00
4:00 PM,57,45,54,30.15,,SSW,17.3,,,,,200,2013-06-20 06:00:00
4:00 PM,57.2,44.6,63,30.12,6.2,SSW,17.3,-,N/A,,Mostly Cloudy,200,2013-06-20 06:00:00
4:30 PM,57.2,48.2,72,30.12,6.2,SSW,17.3,-,N/A,,Mostly Cloudy,200,2013-06-20 06:30:00
5:00 PM,57.2,48.2,72,30.12,6.2,SSW,17.3,-,N/A,,Mostly Cloudy,210,2013-06-20 07:00:00
5:30 PM,57.2,46.4,67,30.15,6.2,SSW,18.4,-,N/A,,Mostly Cloudy,200,2013-06-20 07:30:00
6:00 PM,56,49,69,30.17,16,South,18.4,,,,Mostly Cloudy,180,2013-06-20 08:00:00
6:00 PM,57.2,48.2,72,30.15,6.2,South,18.4,-,N/A,,Mostly Cloudy,180,2013-06-20 08:00:00
6:30 PM,55.4,48.2,77,30.15,6.2,SSW,12.7,-,N/A,,Mostly Cloudy,210,2013-06-20 08:30:00
7:00 PM,55,47,67,30.18,,SSW,12.7,,,,,210,2013-06-20 09:00:00
7:00 PM,55.4,46.4,72,30.15,6.2,SSW,12.7,-,N/A,,Mostly Cloudy,210,2013-06-20 09:00:00
7:30 PM,53.6,44.6,72,30.15,6.2,WSW,10.4,-,N/A,,Mostly Cloudy,240,2013-06-20 09:30:00
8:00 PM,53.6,44.6,72,30.15,6.2,SW,10.4,-,N/A,,Mostly Cloudy,220,2013-06-20 10:00:00
8:30 PM,53.6,44.6,72,30.15,6.2,SW,10.4,-,N/A,,Scattered Clouds,220,2013-06-20 10:30:00
9:00 PM,53,44,63,30.17,16,WSW,10.4,,,,Partly Cloudy,240,2013-06-20 11:00:00
9:00 PM,51.8,44.6,76,30.15,6.2,WSW,10.4,-,N/A,,Mostly Cloudy,240,2013-06-20 11:00:00
9:30 PM,51.8,44.6,76,30.15,6.2,WSW,10.4,-,N/A,,Mostly Cloudy,240,2013-06-20 11:30:00
10:00 PM,53,43,61,30.17,,West,8.1,,,,,260,2013-06-20 12:00:00
10:00 PM,53.6,42.8,67,30.15,6.2,West,8.1,-,N/A,,Mostly Cloudy,260,2013-06-20 12:00:00
10:30 PM,50.0,42.8,76,30.15,6.2,WNW,9.2,-,N/A,,Mostly Cloudy,300,2013-06-20 12:30:00
11:00 PM,50.0,42.8,76,30.15,6.2,West,9.2,-,N/A,,Mostly Cloudy,280,2013-06-20 13:00:00
11:30 PM,50.0,42.8,76,30.15,6.2,West,9.2,-,N/A,,Scattered Clouds,280,2013-06-20 13:30:00